PBO Station Position Time Series. Reference Frame : NAM14
Format Version,1.1.0
4-character ID,AC15
Station name,CooperLndgAK2005
Begin Date, 2005-10-14
End Date, 2019-10-07
Release Date, 2019-10-08
Reference position, 60.4813330279 North Latitude, -149.7240076207 East Longitude, 151.47648 meters elevation,
Date, North (mm), East (mm), Vertical (mm), North Std. Deviation (mm), East Std. Deviation (mm),              Vertical Std. Deviation (mm), Quality,
2005-10-14,0.00, 0.00, 0.00, 2.46, 1.59, 7.84, repro,
2005-10-15,1.16, 0.19, 5.42, 2.44, 1.63, 7.84, repro,
2005-10-16,1.18, -1.01, 1.04, 2.46, 1.62, 7.92, repro,
2005-10-17,0.44, -0.30, 4.97, 2.48, 1.62, 7.96, repro,
2005-10-18,-2.61, -0.75, 8.26, 2.51, 1.65, 7.98, repro,
2005-10-19,2.09, -0.87, -10.32, 2.54, 1.65, 8.04, repro,
2005-10-20,2.81, 7.98, -19.67, 2.54, 1.67, 8.04, repro,
2005-10-21,0.65, 1.66, -8.17, 2.47, 1.63, 7.96, repro,
2005-10-22,-1.49, 0.47, 4.17, 2.47, 1.61, 7.93, repro,
2005-10-23,-4.82, 3.72, -5.44, 2.48, 1.63, 7.97, repro,
2005-10-24,-2.13, 0.11, -3.07, 2.46, 1.61, 7.87, repro,
2005-10-25,0.19, -0.45, 7.92, 2.47, 1.63, 7.86, repro,
2005-10-26,-0.20, -1.14, 5.86, 2.48, 1.63, 7.85, repro,
2005-10-27,0.11, -1.44, -0.69, 2.43, 1.60, 7.79, repro,
2005-10-28,0.12, -0.86, 3.82, 2.43, 1.61, 7.84, repro,
2005-10-29,0.20, 0.29, 4.91, 2.53, 1.65, 8.02, repro,
2005-10-30,2.74, -1.63, 0.87, 2.46, 1.62, 7.90, repro,
2005-10-31,-1.77, 1.10, -2.00, 2.59, 1.68, 8.18, repro,
2005-11-01,-0.26, -1.38, -0.61, 2.54, 1.66, 7.99, repro,
2005-11-02,-0.01, -0.44, 6.19, 2.57, 1.69, 8.12, repro,
2005-11-03,0.60, -1.01, -2.85, 2.59, 1.72, 8.47, repro,
2005-11-04,-0.03, 0.14, -3.14, 2.59, 1.71, 8.17, repro,
2005-11-05,1.55, -0.35, -2.61, 2.61, 1.71, 8.14, repro,
2005-11-06,0.42, -1.83, -4.28, 2.62, 1.70, 8.15, repro,
2005-11-07,0.44, -2.65, -0.74, 2.49, 1.67, 7.96, repro,
2005-11-08,-0.95, -1.09, 6.72, 2.57, 1.67, 8.10, repro,
2005-11-09,-0.62, -2.36, 7.90, 2.60, 1.76, 8.47, repro,
2005-11-10,-0.15, -1.62, 4.84, 2.74, 1.81, 8.53, repro,
2005-11-11,-2.46, -0.84, 13.80, 2.62, 1.73, 8.31, repro,
2005-11-12,1.89, -1.09, 0.72, 2.49, 1.64, 7.90, repro,
2005-11-13,2.09, -2.31, 0.55, 2.59, 1.75, 8.17, repro,
2005-11-14,0.37, -2.21, -13.02, 2.54, 1.70, 8.08, repro,
2005-11-15,-2.28, -1.93, -10.99, 2.46, 1.64, 7.95, repro,
2005-11-16,-0.75, -1.71, -0.61, 2.49, 1.65, 8.01, repro,
2005-11-17,1.74, -1.06, 1.99, 2.46, 1.63, 7.89, repro,
2005-11-18,1.91, 1.18, -7.39, 2.45, 1.63, 7.89, repro,
2005-11-19,0.22, 1.02, -3.70, 2.48, 1.65, 8.01, repro,
2005-11-20,-0.20, 0.37, -3.80, 2.50, 1.68, 8.10, repro,
2005-11-21,-4.48, 0.68, -0.33, 2.55, 1.70, 8.37, repro,
2005-11-22,-0.55, -0.99, 8.35, 2.43, 1.64, 7.91, repro,
2005-11-23,-0.88, 0.95, 4.04, 2.44, 1.62, 7.82, repro,
2005-11-24,-1.68, -0.30, 7.99, 2.44, 1.64, 7.89, repro,
2005-11-25,-0.35, -0.42, 12.43, 2.45, 1.63, 7.86, repro,
2005-11-26,0.40, -1.07, 3.12, 2.51, 1.64, 8.06, repro,
2005-11-27,-1.20, -1.37, -8.55, 2.42, 1.60, 7.79, repro,
2005-11-28,1.74, -0.95, -10.25, 2.52, 1.66, 8.08, repro,
2005-11-29,0.86, -1.46, -7.81, 2.44, 1.63, 7.82, repro,
2005-11-30,3.09, -1.04, -14.14, 2.43, 1.63, 7.82, repro,
2005-12-01,2.79, -2.39, -7.52, 2.48, 1.64, 8.07, repro,
2005-12-02,0.88, -1.11, -2.37, 2.46, 1.61, 7.94, repro,
2005-12-03,-0.06, -0.40, -5.34, 2.41, 1.62, 7.77, repro,
2005-12-04,1.17, -0.87, -1.60, 2.44, 1.61, 7.83, repro,
2005-12-05,2.99, -1.14, -10.39, 2.45, 1.61, 7.87, repro,
2005-12-06,0.26, -2.41, -5.75, 2.54, 1.68, 8.22, repro,
2005-12-07,2.97, -2.59, 6.70, 2.56, 1.67, 8.19, repro,
2005-12-08,-3.06, -1.16, 16.63, 2.56, 1.66, 8.13, repro,
2005-12-09,-3.09, 2.37, -5.24, 2.48, 1.64, 8.08, repro,
2005-12-10,-0.47, -0.02, -4.44, 2.44, 1.62, 7.86, repro,
2005-12-11,-1.18, 0.96, -15.01, 2.45, 1.62, 7.93, repro,
2005-12-12,-0.09, 0.82, -2.53, 2.45, 1.60, 7.88, repro,
2005-12-13,0.23, -0.96, -7.75, 2.43, 1.58, 7.79, repro,
2005-12-14,-1.12, 0.47, -21.40, 2.42, 1.60, 7.84, repro,
2005-12-15,6.98, -0.28, -21.71, 2.57, 1.70, 8.27, repro,
2005-12-16,1.59, 3.44, -20.02, 2.46, 1.62, 7.98, repro,
2005-12-17,1.82, 0.90, -18.08, 2.51, 1.66, 8.08, repro,
2005-12-18,-0.03, -0.52, -16.90, 2.55, 1.64, 8.24, repro,
2005-12-19,0.80, -2.01, 6.12, 2.60, 1.68, 8.24, repro,
2005-12-20,-0.86, -0.27, 2.49, 2.60, 1.71, 8.22, repro,
2005-12-21,-2.74, 0.52, 3.52, 2.58, 1.69, 8.19, repro,
2005-12-22,-1.24, -0.56, -1.90, 2.65, 1.73, 8.37, repro,
2005-12-23,-2.57, 0.75, -0.70, 2.64, 1.71, 8.19, repro,
2005-12-24,-3.33, 0.79, -7.29, 2.74, 1.85, 9.17, repro,
2005-12-25,-0.84, 1.87, -13.19, 2.66, 1.78, 8.63, repro,
2005-12-26,0.19, 7.31, -4.80, 2.49, 1.64, 7.95, repro,
2005-12-27,-1.32, -0.25, -7.14, 2.56, 1.71, 8.28, repro,
2005-12-28,-0.77, 5.97, -5.77, 2.58, 1.70, 8.26, repro,
2005-12-29,1.77, 6.84, -9.56, 2.70, 1.83, 9.13, repro,
2005-12-30,2.28, 1.17, -6.77, 2.58, 1.71, 8.45, repro,
2005-12-31,1.35, 6.47, -4.06, 2.63, 1.76, 8.60, repro,
2006-01-01,-1.71, 0.82, -2.98, 2.52, 1.71, 8.34, repro,
2006-01-02,1.50, 1.36, -9.40, 2.57, 1.73, 8.31, repro,
2006-01-03,1.90, 1.33, -5.80, 2.59, 1.77, 8.81, repro,
2006-01-04,-2.25, 0.63, -13.13, 2.56, 1.73, 8.66, repro,
2006-01-05,0.25, -0.61, -6.55, 2.61, 1.80, 8.48, repro,
2006-01-06,-1.11, 2.36, -7.53, 2.56, 1.77, 8.85, repro,
2006-01-07,0.96, 4.95, -17.19, 2.49, 1.64, 7.85, repro,
2006-01-08,0.49, 3.84, -15.34, 2.67, 1.73, 8.57, repro,
2006-01-09,-3.17, 0.29, -3.35, 2.63, 1.76, 8.78, repro,
2006-01-10,-0.06, 0.22, 0.44, 2.61, 1.72, 8.42, repro,
2006-01-11,1.61, -0.14, -3.75, 2.59, 1.77, 8.72, repro,
2006-01-12,-0.00, 0.83, -9.34, 2.49, 1.70, 8.24, repro,
2006-01-13,-0.48, 1.28, -6.37, 2.57, 1.77, 8.79, repro,
2006-01-14,1.58, -0.18, -10.00, 2.56, 1.70, 8.21, repro,
2006-01-15,-0.28, 0.02, -13.44, 2.51, 1.66, 7.96, repro,
2006-01-16,2.70, 0.12, -10.09, 2.52, 1.69, 8.07, repro,
2006-01-17,2.04, -0.27, -10.90, 2.50, 1.67, 7.88, repro,
2006-01-18,0.37, 0.21, -8.84, 2.49, 1.67, 8.11, repro,
2006-01-19,0.70, 0.26, -10.58, 2.51, 1.67, 7.91, repro,
2006-01-20,1.32, 0.06, -11.30, 2.53, 1.68, 7.99, repro,
2006-01-21,0.88, 0.33, -3.49, 2.45, 1.64, 7.87, repro,
2006-01-22,-1.44, 0.82, -4.35, 2.43, 1.65, 7.82, repro,
2006-01-23,-0.73, 0.11, -6.31, 2.40, 1.64, 7.74, repro,
2006-01-24,0.79, -0.22, -8.66, 2.51, 1.70, 7.97, repro,
2006-01-25,0.62, -1.14, -2.56, 2.42, 1.60, 7.92, repro,
2006-01-26,-0.45, -0.17, -1.60, 2.37, 1.57, 7.67, repro,
2006-01-27,1.50, -0.75, 4.35, 2.36, 1.57, 7.61, repro,
2006-01-28,-1.09, -0.27, 4.88, 2.37, 1.60, 7.76, repro,
2006-01-29,-0.40, 0.94, 3.94, 2.39, 1.60, 7.84, repro,
2006-01-30,-1.25, 1.59, -1.92, 2.44, 1.61, 8.00, repro,
2006-01-31,-0.89, 0.26, 8.22, 2.38, 1.58, 7.68, repro,
2006-02-01,-1.04, 1.56, 9.67, 2.39, 1.58, 7.64, repro,
2006-02-02,-3.33, 0.90, 3.28, 2.39, 1.62, 7.80, repro,
2006-02-03,-4.78, 1.60, -0.45, 2.36, 1.58, 7.59, repro,
2006-02-04,-4.24, 1.35, -2.02, 2.40, 1.62, 7.81, repro,
2006-02-05,2.56, 8.46, -14.83, 2.43, 1.61, 7.90, repro,
2006-02-06,7.62, 5.83, -5.02, 2.45, 1.63, 7.88, repro,
2006-02-07,-0.09, -0.55, -0.41, 2.42, 1.59, 7.73, repro,
2006-02-08,-0.14, -0.87, -13.87, 2.37, 1.59, 7.64, repro,
2006-02-09,3.15, 6.60, -19.91, 2.45, 1.62, 8.01, repro,
2006-02-10,8.11, 5.48, -30.81, 3.15, 2.09, 9.76, repro,
2006-02-11,6.13, 6.70, -20.12, 2.42, 1.63, 7.84, repro,
2006-02-12,4.52, 8.35, -25.38, 2.43, 1.64, 7.86, repro,
2006-02-13,2.27, 0.84, -12.20, 2.44, 1.61, 7.81, repro,
2006-02-14,2.30, 1.36, -25.29, 2.45, 1.60, 7.90, repro,
2006-02-15,2.76, 1.03, -24.22, 2.41, 1.61, 7.82, repro,
2006-02-16,0.39, 0.15, -17.22, 2.44, 1.62, 7.86, repro,
2006-02-17,0.63, -0.33, -15.28, 2.44, 1.62, 7.86, repro,
2006-02-18,0.20, 0.92, -12.36, 2.51, 1.65, 8.02, repro,
2006-02-19,2.03, -0.71, -14.76, 2.46, 1.63, 7.93, repro,
2006-02-20,0.64, -1.20, -13.16, 2.42, 1.60, 7.76, repro,
2006-02-21,-1.31, -1.16, -14.12, 2.42, 1.60, 7.77, repro,
2006-02-22,-1.19, -0.72, -16.50, 2.42, 1.61, 7.78, repro,
2006-02-23,1.12, -0.53, -13.83, 2.38, 1.59, 7.67, repro,
2006-02-24,0.08, -0.52, -13.16, 2.40, 1.57, 7.59, repro,
2006-02-25,1.16, -0.40, -20.59, 2.39, 1.58, 7.64, repro,
2006-02-26,1.06, -0.80, -11.48, 2.44, 1.62, 7.94, repro,
2006-02-27,0.21, 0.83, -1.15, 2.42, 1.61, 7.76, repro,
2006-02-28,1.80, -0.22, 0.18, 2.51, 1.68, 8.26, repro,
2006-03-01,0.94, 0.69, -3.10, 2.55, 1.63, 7.94, repro,
2006-03-02,0.61, -1.10, -11.51, 2.43, 1.58, 7.66, repro,
2006-03-03,0.71, 0.03, -4.31, 2.44, 1.62, 7.88, repro,
2006-03-04,0.99, 0.23, -7.64, 2.41, 1.59, 7.66, repro,
2006-03-05,0.77, 1.04, -8.85, 2.45, 1.59, 7.74, repro,
2006-03-06,0.73, 0.38, -2.24, 2.45, 1.60, 7.69, repro,
2006-03-07,-1.67, 0.21, -4.88, 2.42, 1.59, 7.63, repro,
2006-03-08,-1.44, -2.29, 0.29, 2.40, 1.57, 7.60, repro,
2006-03-09,0.48, -4.58, -3.39, 2.40, 1.59, 7.57, repro,
2006-03-10,3.94, -2.06, -12.37, 2.40, 1.60, 7.64, repro,
2006-03-11,-0.20, 0.30, -14.15, 2.46, 1.63, 7.84, repro,
2006-03-12,-1.52, 1.22, -3.14, 2.48, 1.62, 7.85, repro,
2006-03-13,0.47, 1.62, -15.14, 2.53, 1.68, 7.97, repro,
2006-03-14,1.84, 1.00, -9.49, 2.46, 1.62, 7.75, repro,
2006-03-15,1.01, 1.58, -15.23, 2.48, 1.61, 7.81, repro,
2006-03-16,0.09, 1.09, -7.22, 2.59, 1.68, 8.05, repro,
2006-03-17,0.43, 1.07, -16.75, 2.56, 1.66, 7.98, repro,
2006-03-18,-0.37, -0.39, -13.82, 2.54, 1.63, 7.92, repro,
2006-03-19,-0.35, 1.19, -13.56, 2.50, 1.62, 7.84, repro,
2006-03-20,-3.00, 1.60, -13.34, 2.47, 1.63, 7.85, repro,
2006-03-21,-0.33, 1.88, -18.08, 2.48, 1.64, 7.95, repro,
2006-03-22,-0.10, 1.24, -22.58, 2.60, 1.71, 8.19, repro,
2006-03-23,0.23, 2.29, -16.99, 2.66, 1.72, 8.19, repro,
2006-03-24,-0.52, 1.39, -13.08, 2.64, 1.69, 8.09, repro,
2006-03-25,1.18, 1.40, -10.43, 2.55, 1.66, 7.97, repro,
2006-03-26,-0.38, 1.05, -21.23, 2.53, 1.70, 8.11, repro,
2006-03-27,0.07, 1.21, -16.03, 2.54, 1.69, 8.11, repro,
2006-03-28,-0.64, 0.91, -14.24, 2.44, 1.61, 7.65, repro,
2006-03-29,-1.52, 0.88, -9.11, 2.45, 1.59, 7.69, repro,
2006-03-30,-0.79, 1.83, -12.95, 2.41, 1.57, 7.57, repro,
2006-03-31,-0.78, 3.47, -18.08, 2.41, 1.60, 7.69, repro,
2006-04-01,-1.07, 3.17, -4.37, 2.45, 1.62, 7.96, repro,
2006-04-02,1.21, 0.05, -11.89, 2.43, 1.61, 7.77, repro,
2006-04-03,-0.18, 2.00, -17.40, 2.48, 1.60, 7.83, repro,
2006-04-04,0.75, 1.46, -14.82, 2.45, 1.60, 7.80, repro,
2006-04-05,-0.22, 1.98, -12.79, 2.68, 1.76, 8.52, repro,
2006-04-06,-1.25, 1.01, -15.52, 2.51, 1.67, 8.10, repro,
2006-04-07,-0.19, 0.81, -13.25, 2.54, 1.68, 8.24, repro,
2006-04-08,-1.66, 1.25, -16.82, 2.47, 1.61, 7.92, repro,
2006-04-09,-3.81, 1.49, -16.64, 2.50, 1.65, 8.10, repro,
2006-04-10,0.02, 0.65, -12.11, 2.44, 1.60, 7.79, repro,
2006-04-11,-0.19, -0.17, -19.26, 2.43, 1.63, 8.03, repro,
2006-04-12,-1.57, 0.39, -13.86, 2.46, 1.66, 8.21, repro,
2006-04-13,-2.34, 1.50, -3.05, 2.44, 1.61, 7.80, repro,
2006-04-14,-2.39, 1.18, -10.71, 2.66, 1.77, 8.51, repro,
2006-04-15,-0.01, 1.84, -8.44, 2.44, 1.60, 7.78, repro,
2006-04-16,-0.72, 0.13, -10.87, 2.40, 1.57, 7.64, repro,
2006-04-17,-2.59, 4.44, -24.53, 2.44, 1.61, 7.83, repro,
2006-04-18,-2.30, 0.12, -15.72, 2.43, 1.60, 7.78, repro,
2006-04-19,-1.56, 0.72, -13.25, 2.47, 1.59, 7.86, repro,
2006-04-20,0.98, -1.24, -14.51, 2.48, 1.62, 7.83, repro,
2006-04-21,0.61, 5.30, -26.96, 2.43, 1.58, 7.80, repro,
2006-04-22,-1.91, 2.17, -16.41, 2.44, 1.66, 7.88, repro,
2006-04-23,-1.85, 0.89, -16.94, 2.46, 1.66, 7.99, repro,
2006-04-24,-1.57, 4.44, -33.98, 2.45, 1.60, 7.85, repro,
2006-04-25,-0.59, 2.68, -29.46, 2.55, 1.67, 8.11, repro,
2006-04-26,4.24, -0.60, -14.17, 2.41, 1.57, 7.77, repro,
2006-04-27,3.14, 0.02, -25.80, 2.45, 1.60, 7.85, repro,
2006-04-28,-1.37, 1.31, -16.44, 2.46, 1.62, 7.88, repro,
2006-04-29,0.21, 0.19, -11.31, 2.46, 1.66, 7.94, repro,
2006-04-30,-0.90, 0.61, -20.47, 2.43, 1.59, 7.76, repro,
2006-05-01,0.32, 0.60, -22.05, 2.40, 1.59, 7.70, repro,
2006-05-02,0.86, 5.90, -31.19, 2.39, 1.59, 7.67, repro,
2006-05-03,-0.22, 0.72, -15.77, 2.44, 1.64, 7.85, repro,
2006-05-04,-1.17, 0.34, -14.57, 2.52, 1.68, 8.15, repro,
2006-05-05,-5.37, 5.30, -31.39, 2.44, 1.61, 7.86, repro,
2006-05-06,-1.63, 2.62, -17.00, 2.45, 1.62, 7.88, repro,
2006-05-07,-1.60, 1.39, -9.47, 2.43, 1.60, 7.80, repro,
2006-05-08,-0.03, -0.08, -18.81, 2.41, 1.59, 7.76, repro,
2006-05-09,2.32, 3.04, -26.06, 2.52, 1.68, 8.04, repro,
2006-05-10,1.35, 4.93, -33.25, 2.39, 1.59, 7.72, repro,
2006-05-11,-0.01, 1.57, -29.64, 2.40, 1.59, 7.71, repro,
2006-05-12,-1.18, 0.76, -14.02, 2.40, 1.59, 7.76, repro,
2006-05-13,0.01, -0.00, -22.81, 2.40, 1.60, 7.74, repro,
2006-05-14,0.15, -0.12, -22.04, 2.40, 1.59, 7.75, repro,
2006-05-15,1.24, 0.43, -28.00, 2.40, 1.60, 7.72, repro,
2006-05-16,0.54, 0.89, -26.93, 2.47, 1.62, 8.02, repro,
2006-05-17,0.07, 0.63, -14.44, 2.43, 1.62, 7.93, repro,
2006-05-18,1.92, 0.82, -17.58, 2.47, 1.63, 7.86, repro,
2006-05-19,1.96, 0.47, -18.47, 2.46, 1.65, 7.90, repro,
2006-05-20,-0.38, -0.02, -12.77, 2.51, 1.67, 8.06, repro,
2006-05-21,1.92, 1.68, -9.51, 2.46, 1.66, 7.92, repro,
2006-05-22,1.60, 0.68, -7.68, 2.56, 1.70, 8.15, repro,
2006-05-23,0.13, -0.19, -5.90, 2.48, 1.66, 7.97, repro,
2006-05-24,3.27, 0.27, -19.47, 2.47, 1.67, 7.95, repro,
2006-05-25,2.96, -1.32, -18.65, 2.50, 1.70, 8.32, repro,
2006-05-26,1.32, -1.02, -14.46, 2.53, 1.71, 8.38, repro,
2006-05-27,2.44, -1.61, -10.04, 2.52, 1.73, 8.17, repro,
2006-05-28,2.39, -1.22, -6.25, 2.53, 1.72, 8.10, repro,
2006-05-29,4.73, 0.04, -14.00, 2.46, 1.66, 7.87, repro,
2006-05-30,1.65, 1.33, -21.99, 2.49, 1.68, 7.95, repro,
2006-05-31,1.49, 1.09, -8.66, 2.57, 1.71, 8.20, repro,
2006-06-01,2.41, 0.10, -9.04, 2.50, 1.68, 8.01, repro,
2006-06-02,1.64, 1.84, -15.08, 2.63, 1.75, 8.39, repro,
2006-06-03,2.66, -0.97, -15.62, 2.66, 1.80, 8.55, repro,
2006-06-04,1.78, 0.35, -10.39, 2.53, 1.69, 8.14, repro,
2006-06-05,2.75, -0.25, -8.90, 2.55, 1.71, 8.37, repro,
2006-06-06,1.47, 0.14, -7.53, 2.64, 1.72, 8.44, repro,
2006-06-07,0.19, 1.16, -13.41, 2.58, 1.71, 8.33, repro,
2006-06-08,3.84, 1.94, -14.78, 2.48, 1.66, 7.94, repro,
2006-06-09,8.66, -0.67, -18.85, 2.48, 1.67, 7.98, repro,
2006-06-10,5.46, 0.63, -31.38, 2.57, 1.75, 8.28, repro,
2006-06-11,0.62, 1.26, -18.52, 2.52, 1.66, 8.01, repro,
2006-06-12,2.16, -0.02, -2.57, 2.52, 1.68, 8.13, repro,
2006-06-13,-1.08, 1.96, -9.47, 2.48, 1.67, 7.96, repro,
2006-06-14,1.36, 1.24, -9.64, 2.46, 1.66, 7.85, repro,
2006-06-15,5.02, -0.14, -7.98, 2.50, 1.67, 7.98, repro,
2006-06-16,3.34, 0.90, -3.32, 2.50, 1.69, 8.06, repro,
2006-06-17,1.78, 0.26, -15.87, 2.51, 1.68, 8.05, repro,
2006-06-18,1.57, 7.96, -9.61, 2.70, 1.79, 8.53, repro,
2006-06-19,5.43, 0.66, -14.76, 2.57, 1.73, 8.21, repro,
2006-06-20,3.51, 1.40, -14.82, 2.57, 1.72, 8.16, repro,
2006-06-21,3.61, -1.48, -10.85, 2.59, 1.72, 8.27, repro,
2006-06-22,2.30, 1.44, -18.72, 2.55, 1.71, 8.13, repro,
2006-06-23,3.76, 1.61, -15.75, 2.59, 1.71, 8.26, repro,
2006-06-24,3.52, 1.28, -21.50, 2.67, 1.74, 8.40, repro,
2006-06-25,4.92, -1.05, -12.47, 2.55, 1.73, 8.17, repro,
2006-06-26,4.11, 1.24, -13.56, 2.54, 1.71, 8.11, repro,
2006-06-27,3.20, 0.59, -19.69, 2.57, 1.71, 8.20, repro,
2006-06-28,7.26, -1.01, -17.71, 2.62, 1.71, 8.28, repro,
2006-06-29,1.71, 2.09, -14.80, 2.52, 1.64, 8.01, repro,
2006-06-30,0.54, 0.13, -5.75, 2.47, 1.66, 8.26, repro,
2006-07-01,3.27, 0.62, -19.86, 3.14, 2.04, 9.69, repro,
2006-07-02,0.96, -0.60, -18.72, 2.50, 1.69, 8.30, repro,
2006-07-03,3.17, 0.43, -21.03, 2.49, 1.65, 8.25, repro,
2006-07-04,3.04, 2.13, -18.68, 2.45, 1.65, 8.23, repro,
2006-07-05,4.12, 0.68, -13.02, 2.46, 1.66, 8.29, repro,
2006-07-06,3.10, 0.38, -14.30, 2.46, 1.65, 8.26, repro,
2006-07-07,1.24, 0.31, -17.86, 3.08, 2.20, 10.49, repro,
2006-07-08,3.08, 0.61, -8.71, 2.65, 1.75, 8.77, repro,
2006-07-09,2.12, 0.80, -12.94, 2.46, 1.64, 8.18, repro,
2006-07-10,2.79, 1.82, -3.81, 2.46, 1.67, 8.25, repro,
2006-07-11,1.42, -1.02, 18.91, 2.45, 1.64, 8.15, repro,
2006-07-12,3.26, -0.16, -9.63, 2.46, 1.66, 8.28, repro,
2006-07-13,6.30, -1.48, -8.42, 2.55, 1.72, 8.66, repro,
2006-07-14,2.74, -0.10, -4.55, 2.48, 1.65, 8.24, repro,
2006-07-15,2.08, 0.22, -1.75, 2.52, 1.66, 8.46, repro,
2006-07-16,4.51, -0.74, -7.06, 2.47, 1.64, 8.17, repro,
2006-07-17,1.17, -0.59, -7.48, 2.55, 1.70, 8.38, repro,
2006-07-18,4.88, -2.66, -6.41, 2.44, 1.60, 7.81, repro,
2006-07-19,3.65, -1.23, -7.96, 2.47, 1.62, 7.96, repro,
2006-07-20,3.42, -1.99, -15.07, 2.44, 1.61, 7.85, repro,
2006-07-21,7.27, -2.33, -11.45, 2.46, 1.61, 7.85, repro,
2006-07-22,5.27, -0.37, -19.14, 2.45, 1.61, 7.82, repro,
2006-07-23,6.03, -0.23, -13.28, 2.43, 1.62, 7.83, repro,
2006-07-24,5.52, 0.41, -24.64, 2.48, 1.64, 8.08, repro,
2006-07-25,4.24, -2.02, -3.45, 2.51, 1.65, 8.49, repro,
2006-07-26,3.33, -0.45, -10.14, 2.47, 1.61, 8.00, repro,
2006-07-27,4.39, -1.37, -11.77, 2.45, 1.59, 7.79, repro,
2006-07-28,3.86, -2.71, -8.91, 2.45, 1.61, 7.85, repro,
2006-07-29,4.22, -2.61, -3.73, 2.47, 1.61, 7.91, repro,
2006-07-30,3.67, -1.77, 0.69, 2.64, 1.72, 8.28, repro,
2006-07-31,3.93, -0.51, -3.69, 2.44, 1.60, 7.76, repro,
2006-08-01,4.82, -1.31, -0.88, 2.47, 1.62, 7.94, repro,
2006-08-02,3.49, -2.77, 2.67, 2.50, 1.64, 7.92, repro,
2006-08-03,6.00, -2.55, -5.89, 2.55, 1.67, 8.27, repro,
2006-08-04,0.50, 1.92, -10.17, 2.61, 1.71, 8.22, repro,
2006-08-05,3.59, -0.18, -5.39, 2.51, 1.63, 7.94, repro,
2006-08-06,6.05, -0.64, 4.71, 3.16, 1.97, 9.63, repro,
2006-08-07,5.71, -4.27, -8.05, 2.64, 1.72, 8.51, repro,
2006-08-08,4.69, -1.82, -8.20, 2.42, 1.60, 7.78, repro,
2006-08-09,3.73, -2.83, -7.57, 2.65, 1.68, 8.24, repro,
2006-08-10,3.06, -2.37, -3.76, 2.47, 1.59, 7.84, repro,
2006-08-11,6.67, -0.94, 3.23, 2.43, 1.59, 7.79, repro,
2006-08-12,6.02, -2.39, 1.05, 2.42, 1.59, 7.66, repro,
2006-08-13,4.26, -2.70, -1.50, 2.43, 1.60, 7.72, repro,
2006-08-14,4.18, -2.29, 6.64, 2.44, 1.60, 7.79, repro,
2006-08-15,2.51, -0.67, -5.80, 2.48, 1.64, 8.12, repro,
2006-08-16,5.24, -0.64, -5.44, 2.58, 1.67, 8.04, repro,
2006-08-17,3.05, -1.24, -7.02, 2.41, 1.60, 7.72, repro,
2006-08-18,6.14, -3.31, 2.31, 2.47, 1.64, 7.84, repro,
2006-08-19,1.89, -2.44, -3.10, 2.47, 1.65, 7.89, repro,
2006-08-20,4.84, -3.93, -0.80, 2.57, 1.65, 8.23, repro,
2006-08-21,3.78, -3.07, -5.28, 2.51, 1.63, 8.10, repro,
2006-08-22,3.94, -3.12, 3.07, 2.46, 1.63, 7.95, repro,
2006-08-23,3.93, -2.81, -4.00, 2.44, 1.62, 7.88, repro,
2006-08-24,4.88, -2.07, -2.55, 2.46, 1.64, 7.99, repro,
2006-08-25,3.88, -4.47, 3.31, 2.63, 1.71, 8.53, repro,
2006-08-26,2.63, -2.38, -2.77, 2.63, 1.69, 8.36, repro,
2006-08-27,2.90, -2.15, -8.72, 2.66, 1.70, 8.40, repro,
2006-08-28,7.22, -2.58, 5.35, 2.68, 1.74, 8.45, repro,
2006-08-29,5.76, -3.10, 1.33, 2.73, 1.73, 8.47, repro,
2006-08-30,4.31, -3.95, 6.90, 2.62, 1.69, 8.27, repro,
2006-08-31,5.44, -0.57, -3.34, 2.66, 1.69, 8.35, repro,
2006-09-01,2.81, -0.79, -3.16, 2.72, 1.75, 8.54, repro,
2006-09-02,2.81, -1.88, -2.88, 2.63, 1.72, 8.48, repro,
2006-09-03,5.06, -3.25, 4.80, 2.62, 1.70, 8.30, repro,
2006-09-04,5.73, -3.37, 3.96, 2.82, 1.80, 8.87, repro,
2006-09-05,5.81, -3.19, 4.92, 2.82, 1.78, 8.87, repro,
2006-09-06,7.02, -2.57, -6.05, 2.74, 1.73, 8.52, repro,
2006-09-07,3.35, -1.71, 0.72, 2.70, 1.72, 8.45, repro,
2006-09-08,5.23, -2.57, -2.16, 2.81, 1.82, 8.79, repro,
2006-09-09,4.81, 1.33, -4.83, 2.55, 1.66, 8.13, repro,
2006-09-10,3.43, -3.16, 6.94, 2.56, 1.66, 8.19, repro,
2006-09-11,6.13, -2.82, 1.10, 2.56, 1.65, 8.18, repro,
2006-09-12,2.16, -1.58, -6.59, 2.56, 1.65, 8.18, repro,
2006-09-13,5.90, -3.19, -6.83, 2.52, 1.65, 8.07, repro,
2006-09-14,0.82, -2.67, 2.41, 2.68, 1.80, 8.54, repro,
2006-09-15,4.70, -8.13, 2.64, 2.59, 1.70, 8.40, repro,
2006-09-16,3.90, -0.12, 10.92, 2.51, 1.62, 8.09, repro,
2006-09-17,2.95, -1.58, 8.35, 2.52, 1.63, 8.11, repro,
2006-09-18,3.50, -2.19, 4.22, 2.54, 1.67, 8.17, repro,
2006-09-19,8.94, -0.40, -1.54, 2.46, 1.62, 7.99, repro,
2006-09-20,4.79, -1.40, 4.80, 2.53, 1.66, 8.07, repro,
2006-09-21,4.92, -0.65, -2.85, 2.55, 1.65, 8.16, repro,
2006-09-22,3.44, -1.27, -2.22, 2.63, 1.69, 8.25, repro,
2006-09-23,2.42, -1.11, 2.99, 2.55, 1.64, 8.06, repro,
2006-09-24,4.35, -1.53, -3.29, 2.55, 1.67, 8.11, repro,
2006-09-25,4.11, -2.09, -4.41, 2.50, 1.66, 8.05, repro,
2006-09-26,5.22, -0.70, -6.75, 2.51, 1.63, 8.10, repro,
2006-09-27,-0.34, -1.15, -1.62, 2.47, 1.62, 7.99, repro,
2006-09-28,2.92, -3.51, 6.30, 2.48, 1.62, 7.97, repro,
2006-09-29,3.97, -2.61, 7.95, 2.46, 1.60, 7.87, repro,
2006-09-30,4.78, -1.75, 3.72, 2.55, 1.67, 8.13, repro,
2006-10-01,5.81, -2.13, 2.77, 2.51, 1.62, 8.08, repro,
2006-10-02,6.38, -2.20, 0.10, 2.57, 1.66, 8.22, repro,
2006-10-03,1.60, -0.65, -11.79, 2.59, 1.67, 8.23, repro,
2006-10-04,0.93, -2.79, 5.53, 2.48, 1.61, 7.95, repro,
2006-10-05,2.36, -1.43, 14.01, 3.29, 2.07, 9.84, repro,
2006-10-06,2.35, -1.93, 4.59, 2.56, 1.65, 8.22, repro,
2006-10-07,4.87, -1.78, -6.29, 2.53, 1.64, 8.06, repro,
2006-10-08,4.32, 2.64, -27.77, 2.56, 1.66, 8.14, repro,
2006-10-09,8.38, -5.38, -5.44, 2.55, 1.67, 8.25, repro,
2006-10-10,6.52, -4.15, -11.79, 2.52, 1.64, 8.16, repro,
2006-10-11,4.29, -2.02, -7.11, 2.52, 1.63, 8.03, repro,
2006-10-12,6.03, -1.58, -5.57, 2.49, 1.60, 7.96, repro,
2006-10-13,5.96, -2.58, -2.13, 2.43, 1.57, 7.81, repro,
2006-10-14,4.03, -2.68, 0.76, 2.47, 1.58, 7.85, repro,
2006-10-15,4.61, -2.52, -1.16, 2.58, 1.63, 8.16, repro,
2006-10-16,4.26, -2.78, -1.96, 2.45, 1.59, 7.87, repro,
2006-10-17,5.07, -2.49, 3.27, 2.51, 1.62, 8.05, repro,
2006-10-18,5.70, -3.82, 3.55, 2.42, 1.57, 7.81, repro,
2006-10-19,4.14, -3.58, 8.83, 2.50, 1.62, 8.07, repro,
2006-10-20,1.15, -5.40, 7.62, 2.64, 1.73, 8.39, repro,
2006-10-21,1.91, -2.13, -4.64, 2.70, 1.76, 8.49, repro,
2006-10-22,5.19, -2.45, -1.61, 2.49, 1.61, 7.96, repro,
2006-10-23,4.67, -3.07, 12.89, 2.42, 1.58, 7.80, repro,
2006-10-24,2.85, -3.21, 5.02, 2.63, 1.69, 8.42, repro,
2006-10-25,4.49, -2.32, 3.77, 2.60, 1.70, 8.38, repro,
2006-10-26,4.22, -3.85, 8.26, 2.55, 1.65, 8.17, repro,
2006-10-27,3.84, -3.00, -2.03, 2.43, 1.59, 7.80, repro,
2006-10-28,6.89, -1.86, -7.47, 2.70, 1.84, 8.76, repro,
2006-10-29,5.36, -3.40, 5.59, 2.54, 1.62, 8.04, repro,
2006-10-30,6.08, -2.38, -4.40, 2.50, 1.62, 8.10, repro,
2006-10-31,3.52, -2.10, 0.06, 2.56, 1.68, 8.22, repro,
2006-11-01,4.11, -2.27, -5.28, 2.54, 1.65, 8.29, repro,
2006-11-02,4.73, -3.49, -0.48, 2.50, 1.66, 8.03, repro,
2006-11-03,6.03, -4.11, -3.67, 2.44, 1.60, 7.96, repro,
2006-11-04,6.07, -2.91, -4.90, 2.50, 1.63, 8.23, repro,
2006-11-05,4.20, -3.93, 0.09, 2.45, 1.61, 8.03, repro,
2006-11-06,2.81, -2.87, -2.11, 2.41, 1.58, 7.80, repro,
2006-11-07,4.97, -4.07, -6.17, 2.43, 1.58, 8.02, repro,
2006-11-08,3.93, -3.09, 4.40, 2.48, 1.61, 8.07, repro,
2006-11-09,4.77, -3.04, 2.59, 2.50, 1.63, 8.18, repro,
2006-11-10,-1.26, 1.92, 0.12, 2.49, 1.62, 8.16, repro,
2006-11-11,2.01, -2.66, 5.75, 2.51, 1.62, 8.18, repro,
2006-11-12,6.63, -3.56, 11.27, 3.14, 1.89, 9.85, repro,
2006-11-13,6.76, -6.25, 3.43, 2.48, 1.63, 8.17, repro,
2006-11-14,3.27, -7.69, 1.72, 2.41, 1.54, 7.69, repro,
2006-11-15,3.54, -2.56, 9.44, 2.43, 1.56, 7.79, repro,
2006-11-16,5.40, -2.95, 3.71, 2.40, 1.55, 7.79, repro,
2006-11-17,5.12, -3.55, 3.16, 2.38, 1.54, 7.66, repro,
2006-11-18,5.42, -3.60, -0.05, 2.38, 1.55, 7.74, repro,
2006-11-19,4.68, -2.38, -1.64, 2.36, 1.54, 7.63, repro,
2006-11-20,4.06, -4.04, 1.09, 2.39, 1.56, 7.76, repro,
2006-11-21,4.54, -2.96, 2.68, 2.42, 1.56, 7.80, repro,
2006-11-22,4.26, -4.06, -4.30, 2.42, 1.59, 8.03, repro,
2006-11-23,4.26, -3.82, -4.91, 2.48, 1.60, 7.95, repro,
2006-11-24,3.07, -2.97, -7.29, 2.50, 1.66, 8.13, repro,
2006-11-25,3.59, -3.00, -9.78, 2.38, 1.55, 7.71, repro,
2006-11-26,2.34, -2.51, -9.92, 2.41, 1.56, 7.80, repro,
2006-11-27,3.82, -3.61, -7.76, 2.44, 1.59, 7.93, repro,
2006-11-28,3.01, -3.10, -3.93, 2.46, 1.62, 8.01, repro,
2006-11-29,3.11, -2.18, -1.71, 2.39, 1.54, 7.66, repro,
2006-11-30,1.96, -3.23, -1.64, 2.47, 1.65, 8.14, repro,
2006-12-01,5.22, -4.06, -5.21, 2.43, 1.57, 7.91, repro,
2006-12-02,5.20, -3.50, -13.20, 2.41, 1.56, 7.82, repro,
2006-12-03,3.03, -4.05, -21.76, 2.49, 1.63, 8.07, repro,
2006-12-04,6.14, -4.11, -12.33, 2.49, 1.59, 8.08, repro,
2006-12-05,4.47, -3.45, -1.38, 2.49, 1.63, 8.22, repro,
2006-12-06,7.02, -1.01, -2.92, 2.54, 1.65, 8.23, repro,
2006-12-07,2.41, 2.72, 4.14, 2.48, 1.60, 8.06, repro,